Weather History for Cozumel, Mexico

Change the Weather History Date:

Tuesday, October 8, 2013

  Actual Average Record
Temperature  
Mean Temperature 74 °F -  
Max Temperature 80 °F 87 °F 91 °F (1998)
Min Temperature 68 °F 76 °F 68 °F (2013)
Cooling Degree Days 9    
Growing Degree Days 24 (Base 50)    
Moisture  
Dew Point 72 °F    
Average Humidity 95    
Maximum Humidity 100    
Minimum Humidity 79    
Precipitation  
Precipitation 2.65 in - - ()
Sea Level Pressure  
Sea Level Pressure 29.94 in    
Wind  
Wind Speed 1 mph ()    
Max Wind Speed 7 mph    
Max Gust Speed -    
Visibility 7.5 miles    
Events      
Averages and records for this station are not official NWS values.
T = Trace of Precipitation, MM = Missing Value Source: Averaged Metar Reports

Daily Weather History Graph

Daily Weather History Graph

Search for Another Location

Airport:

Trip Planner

Search our weather history database for the weather conditions in past years. The results will help you decide how hot, cold, wet, or windy it might be!

Date:

Astronomy

Oct. 08, 2013 Rise Set
Actual Time 6:40 AM CDT 6:29 PM CDT
Civil Twilight 6:18 AM CDT 6:51 PM CDT
Nautical Twilight 5:52 AM CDT 7:17 PM CDT
Astronomical Twilight 5:27 AM CDT 7:42 PM CDT
Moon 10:06 AM CDT (10/8) 9:33 PM CDT (10/8)
Length of Visible Light 12h 32m
Length of Day
11h 48m
Waxing Crescent, 16% of the Moon is Illuminated
Oct 8
Waxing Crescent
Oct 11
First Quarter
Oct 18
Full
Oct 26
Last Quarter
Nov 3
New

Hourly Weather History & Observations

Time (CDT) Temp. Heat Index Dew Point Humidity Pressure Visibility Wind Dir Wind Speed Gust Speed Precip Events Conditions
12:55 AM 71.6 °F - 71.6 °F 100% 29.93 in 7.0 mi Calm Calm - N/A   Partly Cloudy
1:55 AM 69.8 °F - 69.8 °F 100% 29.93 in 7.0 mi SSE 3.5 mph - N/A   Partly Cloudy
2:43 AM 69.8 °F - 69.8 °F 100% 29.92 in 7.0 mi Calm Calm - N/A   Partly Cloudy
3:45 AM 68.0 °F - 68.0 °F 100% 29.95 in 7.0 mi Calm Calm - N/A   Partly Cloudy
4:46 AM 68.0 °F - 68.0 °F 100% 29.92 in 7.0 mi Calm Calm - N/A   Partly Cloudy
5:43 AM 68.0 °F - 68.0 °F 100% 29.93 in 7.0 mi Calm Calm - N/A   Partly Cloudy
6:41 AM 68.0 °F - 68.0 °F 100% 29.92 in 8.0 mi Calm Calm - N/A   Scattered Clouds
7:41 AM 68.0 °F - 68.0 °F 100% 29.97 in 8.0 mi Calm Calm - N/A   Mostly Cloudy
8:41 AM 73.4 °F - 71.6 °F 94% 29.97 in 8.0 mi Calm Calm - N/A   Scattered Clouds
9:43 AM 80.6 °F 86.2 °F 75.2 °F 84% 30.02 in 8.0 mi Calm Calm - N/A   Mostly Cloudy
10:47 AM 77.0 °F - 75.2 °F 94% 29.98 in 8.0 mi Calm Calm - N/A   Mostly Cloudy
11:42 AM 77.0 °F - 75.2 °F 94% 29.98 in 8.0 mi West 5.8 mph - N/A   Mostly Cloudy
12:45 PM 75.2 °F - 71.6 °F 89% 29.94 in 8.0 mi NE 3.5 mph - N/A   Mostly Cloudy
1:46 PM 78.8 °F - 73.4 °F 83% 29.92 in 8.0 mi West 4.6 mph - N/A   Mostly Cloudy
2:41 PM 80.6 °F 85.4 °F 73.4 °F 79% 29.90 in 8.0 mi West 6.9 mph - N/A   Mostly Cloudy
3:49 PM 77.0 °F - 75.2 °F 94% 29.91 in 8.0 mi West 5.8 mph - N/A   Mostly Cloudy
4:43 PM 77.0 °F - 73.4 °F 89% 29.88 in 8.0 mi ESE 3.5 mph - N/A   Mostly Cloudy
5:41 PM 78.8 °F - 73.4 °F 83% 29.90 in 8.0 mi East 3.5 mph - N/A   Mostly Cloudy
6:41 PM 75.2 °F - 73.4 °F 94% 29.90 in 8.0 mi Calm Calm - N/A   Scattered Clouds
7:45 PM 73.4 °F - 73.4 °F 100% 29.93 in 7.0 mi Calm Calm - N/A   Scattered Clouds
8:41 PM 71.6 °F - 71.6 °F 100% 29.95 in 7.0 mi Calm Calm - N/A   Scattered Clouds
9:48 PM 71.6 °F - 71.6 °F 100% 29.99 in 7.0 mi Calm Calm - N/A   Scattered Clouds
10:44 PM 71.6 °F - 71.6 °F 100% 29.98 in 7.0 mi Calm Calm - N/A   Scattered Clouds
11:45 PM 73.4 °F - 73.4 °F 100% 29.97 in 7.0 mi Calm Calm - N/A   Mostly Cloudy